Location: Arrien
(43.3167°N, 0.1500°W)
Time: 22:25:35
(UTC+00:00)

H-2A R/B - Pass Details

Date: 15 October 2021
Orbit: 528 x 650 km, 98.3° (Epoch: 04 December)

Event Time Altitude Azimuth Distance (km) Brightness Sun altitude
Rises 18:42:04 0° 169° (S) 2,943 5.9 -16.2°
Reaches altitude 10° 18:44:17 10° 171° (S) 2,028 5.1 -16.6°
Maximum altitude 18:48:43 76° 257° (WSW) 653 2.7 -17.4°
Drops below altitude 10° 18:53:03 10° 343° (NNW) 1,985 5.4 -18.2°
Sets 18:55:13 0° 345° (NNW) 2,875 6.2 -18.5°
